Location: Bouchavesnes-Bergen
(49.9859°N, 2.9203°E)
Time: 03:44:38
(UTC+00:00)

Envisat - Pass Details

Date: 04 February 2023
Orbit: 763 x 765 km, 98.2° (Epoch: 30 March)

Event Time Altitude Azimuth Distance (km) Brightness Sun altitude
Rises 05:03:22 0° 7° (N) 3,247 6.3 -21.8°
Reaches altitude 10° 05:05:51 10° 359° (N) 2,316 5.5 -21.4°
Enters shadow 05:09:16 30° 321° (NW) 1,357 3.9 -20.9°
